This demonstration page uses our WeatherBlox Daily Observations layout. Learn more.

Hourly Observations for October 30, 2020

Temp ( °F °C ) Dew Point ( °F °C ) Humidity (%) Winds ( mph kmh ) Pressure ( in mb ) Visibility ( mi km ) Precip ( " mm )
12:15 am 00:15 Cloudy 43 6 43 6 100 100 NE 8 13 29.64 1004 10 16.0934 0 0
12:35 am 00:35 Cloudy 43 6 43 6 100 100 NNE 10 17 29.63 1003 7 11.26538 0 0
12:55 am 00:55 Cloudy 43 6 43 6 100 100 NE 5 7 29.62 1003 10 16.0934 0 0
1:15 am 01:15 Cloudy 43 6 43 6 100 100 ENE 3 6 29.65 1004 7 11.26538 0 0
1:35 am 01:35 Cloudy 43 6 43 6 100 100 NNE 10 17 29.64 1004 10 16.0934 0 0
1:55 am 01:55 Cloudy 43 6 43 6 100 100 NNE 9 15 29.65 1004 10 16.0934 0 0
2:15 am 02:15 Cloudy 43 6 43 6 100 100 NNE 8 13 29.65 1004 10 16.0934 0 0
2:35 am 02:35 Cloudy 43 6 43 6 100 100 N 9 15 29.68 1005 10 16.0934 0 0
2:55 am 02:55 Cloudy 43 6 43 6 100 100 NNE 6 9 29.67 1005 10 16.0934 0 0
3:15 am 03:15 Cloudy 43 6 43 6 100 100 NE 7 11 29.68 1005 10 16.0934 0 0
3:35 am 03:35 Cloudy 43 6 43 6 100 100 NNE 9 15 29.66 1004 10 16.0934 0 0
3:55 am 03:55 Cloudy 41 5 41 5 100 100 N 7 11 29.68 1005 7 11.26538 0 0
4:15 am 04:15 Cloudy 41 5 41 5 100 100 N 10 17 29.68 1005 7 11.26538 0 0
4:35 am 04:35 Cloudy 41 5 41 5 100 100 N 10 17 29.68 1005 7 11.26538 0 0
4:55 am 04:55 Cloudy 41 5 41 5 100 100 NNE 10 17 29.69 1006 7 11.26538 0 0
5:15 am 05:15 Cloudy 41 5 41 5 100 100 N 10 17 29.67 1005 7 11.26538 0 0
5:35 am 05:35 Cloudy 41 5 41 5 100 100 N 8 13 29.72 1007 10 16.0934 0 0
5:55 am 05:55 Cloudy 41 5 41 5 100 100 N 6 9 29.72 1007 10 16.0934 0 0
6:15 am 06:15 Cloudy 41 5 41 5 100 100 N 13 20 29.73 1007 10 16.0934 0 0
6:35 am 06:35 Cloudy 41 5 41 5 100 100 N 12 19 29.75 1008 10 16.0934 0 0
6:55 am 06:55 Cloudy 41 5 41 5 100 100 N 13 20 29.76 1008 7 11.26538 0 0
7:15 am 07:15 Cloudy 41 5 41 5 100 100 N 12 19 29.77 1008 7 11.26538 0 0
7:35 am 07:35 Cloudy 41 5 41 5 100 100 N 14 22 29.8 1009 5 8.0467 0 0
7:55 am 07:55 Cloudy 41 5 39 4 93 93 N 12 19 29.82 1010 7 11.26538 0 0
8:15 am 08:15 Cloudy 41 5 39 4 93 93 N 9 15 29.84 1011 10 16.0934 0 0
8:35 am 08:35 Cloudy 41 5 39 4 93 93 N 10 17 29.86 1011 10 16.0934 0 0
8:55 am 08:55 Cloudy 41 5 39 4 93 93 N 10 17 29.87 1012 10 16.0934 0 0
9:15 am 09:15 Cloudy 41 5 39 4 93 93 N 12 19 29.89 1012 5 8.0467 0 0
9:35 am 09:35 Cloudy 41 5 41 5 100 100 N 9 15 29.91 1013 10 16.0934 0 0
9:55 am 09:55 Cloudy 41 5 41 5 100 100 N 7 11 29.93 1014 10 16.0934 0 0
10:15 am 10:15 Cloudy 41 5 41 5 100 100 NNW 10 17 29.94 1014 10 16.0934 0 0
10:35 am 10:35 Cloudy 41 5 39 4 93 93 N 10 17 29.95 1014 10 16.0934 0 0
10:55 am 10:55 Cloudy 43 6 39 4 87 87 NNW 16 26 29.96 1015 10 16.0934 0 0
11:15 am 11:15 Cloudy 43 6 37 3 81 81 N 14 22 29.97 1015 10 16.0934 0 0
11:35 am 11:35 Cloudy 43 6 37 3 81 81 N 9 15 29.98 1015 10 16.0934 0 0
11:55 am 11:55 Cloudy 43 6 36 2 76 76 N 13 20 30 1016 10 16.0934 0 0
12:15 pm 12:15 Cloudy 43 6 37 3 81 81 N 14 22 30.01 1016 10 16.0934 0 0
12:35 pm 12:35 Cloudy 45 7 37 3 76 76 N 13 20 30.01 1016 10 16.0934 0 0
12:55 pm 12:55 Cloudy 45 7 37 3 76 76 N 12 19 30.02 1017 10 16.0934 0 0
1:15 pm 13:15 Cloudy 46 8 37 3 71 71 N 13 20 30.03 1017 10 16.0934 0 0
1:35 pm 13:35 Partly Cloudy 48 9 41 5 76 76 NNW 14 22 30.03 1017 10 16.0934 0 0
1:55 pm 13:55 Mostly Cloudy 46 8 37 3 71 71 N 14 22 30.04 1017 10 16.0934 0 0
2:15 pm 14:15 Cloudy 48 9 37 3 66 66 N 14 22 30.04 1017 10 16.0934 0 0
2:35 pm 14:35 Cloudy 50 10 37 3 62 62 NNE 7 11 30.06 1018 10 16.0934 0 0
2:55 pm 14:55 Cloudy 50 10 37 3 62 62 NNE 9 15 30.06 1018 10 16.0934 0 0
3:15 pm 15:15 Cloudy 50 10 37 3 62 62 N 10 17 30.07 1018 10 16.0934 0 0
3:35 pm 15:35 Cloudy 50 10 37 3 62 62 N 10 17 30.08 1018 10 16.0934 0 0
3:55 pm 15:55 Cloudy 50 10 37 3 62 62 N 12 19 30.09 1019 10 16.0934 0 0
4:15 pm 16:15 Cloudy 50 10 37 3 62 62 N 10 17 30.09 1019 10 16.0934 0 0
4:35 pm 16:35 Cloudy 50 10 37 3 62 62 N 9 15 30.1 1019 10 16.0934 0 0
4:55 pm 16:55 Cloudy 50 10 37 3 62 62 NNE 7 11 30.11 1020 10 16.0934 0 0
5:15 pm 17:15 Cloudy 50 10 37 3 62 62 N 6 9 30.12 1020 10 16.0934 0 0
5:35 pm 17:35 Cloudy 50 10 37 3 62 62 N 7 11 30.13 1020 10 16.0934 0 0
5:55 pm 17:55 Mostly Cloudy 50 10 37 3 62 62 N 7 11 30.14 1021 10 16.0934 0 0
6:15 pm 18:15 Cloudy 48 9 39 4 71 71 NW 6 9 30.15 1021 10 16.0934 0 0
6:35 pm 18:35 Cloudy 46 8 41 5 82 82 NW 13 20 30.16 1021 10 16.0934 0 0
6:55 pm 18:55 Cloudy 46 8 41 5 82 82 NNW 9 15 30.18 1022 10 16.0934 0 0
7:15 pm 19:15 Cloudy 46 8 43 6 87 87 NNW 8 13 30.19 1022 10 16.0934 0 0
7:35 pm 19:35 Cloudy 45 7 43 6 93 93 NW 8 13 30.2 1023 10 16.0934 0 0
7:55 pm 19:55 Cloudy 45 7 43 6 93 93 NW 8 13 30.22 1023 10 16.0934 0 0
8:15 pm 20:15 Partly Cloudy 45 7 41 5 87 87 NNW 7 11 30.23 1024 10 16.0934 0 0
8:35 pm 20:35 Clear 45 7 41 5 87 87 NNW 8 13 30.24 1024 10 16.0934 0 0
8:55 pm 20:55 Clear 43 6 41 5 93 93 NNW 7 11 30.25 1024 10 16.0934 0 0
9:15 pm 21:15 Clear 43 6 39 4 87 87 Calm 30.26 1025 10 16.0934 0 0
9:35 pm 21:35 Clear 43 6 37 3 81 81 NW 7 11 30.27 1025 10 16.0934 0 0
9:55 pm 21:55 Clear 43 6 37 3 81 81 Calm 30.29 1026 10 16.0934 0 0
10:15 pm 22:15 Partly Cloudy 43 6 37 3 81 81 NNW 5 7 30.3 1026 10 16.0934 0 0
10:35 pm 22:35 Partly Cloudy 43 6 37 3 81 81 N 6 9 30.31 1026 10 16.0934 0 0
10:55 pm 22:55 Clear 43 6 36 2 76 76 N 7 11 30.32 1027 10 16.0934 0 0
11:15 pm 23:15 Clear 41 5 36 2 81 81 NNW 9 15 30.33 1027 10 16.0934 0 0
11:35 pm 23:35 Clear 41 5 36 2 81 81 NNW 10 17 30.34 1028 10 16.0934 0 0
11:55 pm 23:55 Clear 41 5 36 2 81 81 NNW 9 15 30.36 1028 10 16.0934 0 0

Powered by AerisWeather